Location: Grange Verzio
(44.5000°N, 6.9833°E)
Time: 07:46:11
(UTC+00:00)

IRIDIUM 103 - Visible Passes

Search period start: 24 September 2023 00:00
Search period end: 04 October 2023 00:00
Orbit: 776 x 779 km, 86.4° (Epoch: 23 September)

Date Brightness Start Highest point End Pass type
(mag) Time Alt. Az. Time Alt. Az. Time Alt. Az.
24 Sep 6.1 19:28:28 10° NNE 19:30:22 17° NE 19:30:22 17° NE visible
24 Sep 6.2 21:08:26 10° NNW 21:10:50 26° NNW 21:10:50 26° NNW visible
25 Sep 6.4 18:56:25 10° NE 18:57:00 11° NE 18:57:00 11° NE visible
25 Sep 5.8 20:34:45 10° N 20:37:28 32° N 20:37:28 32° N visible
26 Sep 5.6 20:01:19 10° N 20:04:06 30° NNE 20:04:06 30° NNE visible
26 Sep 6.9 21:43:01 10° NW 21:44:35 16° NW 21:44:35 16° NW visible
27 Sep 5.8 19:28:09 10° NNE 19:30:44 23° NE 19:30:44 23° NE visible
27 Sep 6.4 21:08:46 10° NNW 21:11:13 24° NW 21:11:13 24° NW visible
28 Sep 6.1 18:55:27 10° NNE 18:57:24 16° NE 18:57:24 16° NE visible
28 Sep 5.8 20:34:55 10° N 20:37:53 33° NNW 20:37:53 33° NNW visible
29 Sep 5.3 20:01:20 10° N 20:04:33 38° N 20:04:33 38° N visible
29 Sep 7.1 21:43:59 10° NW 21:45:02 12° WNW 21:45:02 12° WNW visible
30 Sep 5.3 19:27:59 10° N 19:31:14 32° NE 19:31:14 32° NE visible
30 Sep 6.6 21:09:14 10° NNW 21:11:43 21° NW 21:11:43 21° NW visible
01 Oct 5.7 18:54:58 10° NNE 18:57:57 22° NE 18:57:57 22° NE visible
01 Oct 5.9 20:35:11 10° NNW 20:38:26 33° NW 20:38:26 33° NW visible
02 Oct 6.1 18:22:37 10° NE 18:24:41 14° ENE 18:24:41 14° ENE visible
02 Oct 5.1 20:01:26 10° N 20:05:09 47° NNW 20:05:09 47° NNW visible
03 Oct 4.8 19:27:56 10° N 19:31:55 47° NNE 19:31:55 47° NNE visible
03 Oct 6.8 21:09:56 10° NW 21:12:23 17° WNW 21:12:23 17° WNW visible
